Whitefield, NH

2:23 PM EDT on October 22, 2017 (GMT -0400)
Mount Washington Regional

Weather History for KHIE - December, 2013

Change the Weather History Date:

Wednesday, December 18, 2013

  Actual Average Record
Temperature  
Mean Temperature 16 °F -  
Max Temperature 25 °F 28 °F 44 °F (2015)
Min Temperature 6 °F 9 °F -17 °F (2007)
Degree Days  
Heating Degree Days 50    
Moisture  
Dew Point 10 °F    
Average Humidity 78    
Maximum Humidity 88    
Minimum Humidity 66    
Precipitation  
Precipitation 0.00 in - - ()
Sea Level Pressure  
Sea Level Pressure 29.96 in    
Wind  
Wind Speed 1 mph (WSW)    
Max Wind Speed 8 mph    
Max Gust Speed -    
Visibility 7 miles    
Events Snow    
Averages and records for this station are not official NWS values.
T = Trace of Precipitation, MM = Missing Value Source: NWS Daily Summary

Daily Weather History Graph

Daily Weather History Graph

Search for Another Location

Airport or City:

Trip Planner

Search our weather history database for the weather conditions in past years. The results will help you decide how hot, cold, wet, or windy it might be!

Date:

Astronomy

Dec. 18, 2013 Rise Set
Actual Time 7:17 AM EST 4:08 PM EST
Civil Twilight 6:44 AM EST 4:41 PM EST
Nautical Twilight 6:07 AM EST 5:18 PM EST
Astronomical Twilight 5:31 AM EST 5:53 PM EST
Moon 5:40 PM EST (12/18) 7:52 AM EST (12/18)
Length of Visible Light 9h 57m
Length of Day
8h 50m
Full, 98% of the Moon is Illuminated
Dec 18
Full
Dec 25
Last Quarter
Jan 1
New
Jan 7
First Quarter
Jan 15
Full

Hourly Weather History & Observations

Time (EST) Temp. Windchill Dew Point Humidity Pressure Visibility Wind Dir Wind Speed Gust Speed Precip Events Conditions
12:52 AM 10.0 °F - 3.9 °F 76% 30.02 in 10.0 mi Calm Calm - N/A   Overcast
1:52 AM 10.9 °F - 3.9 °F 73% 30.01 in 10.0 mi Calm Calm - N/A   Overcast
2:52 AM 10.9 °F - 5.0 °F 77% 30.01 in 6.0 mi Calm Calm - N/A   Haze
3:52 AM 10.9 °F - 5.0 °F 77% 30.01 in 3.0 mi Calm Calm - 0.00 in Snow Light Snow
4:07 AM 10.9 °F - 6.1 °F 81% 29.92 in 2.5 mi Calm Calm - 0.00 in Snow Light Snow
4:33 AM 10.9 °F - 6.1 °F 81% 29.92 in 1.8 mi Calm Calm - 0.00 in Snow Light Snow
4:40 AM 10.9 °F - 6.1 °F 81% 29.92 in 2.5 mi Calm Calm - 0.00 in Snow Light Snow
4:52 AM 10.9 °F - 6.1 °F 81% 29.99 in 2.0 mi Calm Calm - 0.00 in Snow Light Snow
5:12 AM 10.9 °F - 6.1 °F 81% 29.92 in 3.0 mi Calm Calm - 0.00 in Snow Light Snow
5:27 AM 12.0 °F - 6.1 °F 77% 29.92 in 2.0 mi Calm Calm - 0.00 in Snow Light Snow
5:52 AM 12.0 °F - 6.1 °F 77% 29.99 in 2.5 mi Calm Calm - 0.00 in Snow Light Snow
6:13 AM 10.9 °F - 6.1 °F 81% 29.92 in 2.5 mi Calm Calm - 0.00 in Snow Light Snow
6:40 AM 10.9 °F - 6.1 °F 81% 29.93 in 3.0 mi Calm Calm - 0.00 in Snow Light Snow
6:52 AM 10.9 °F - 6.1 °F 81% 30.00 in 4.0 mi Calm Calm - 0.00 in Snow Light Snow
7:20 AM 9.0 °F 2.4 °F 5.0 °F 84% 29.93 in 4.0 mi East 3.5 mph - 0.00 in   Overcast
7:30 AM 8.1 °F - 5.0 °F 87% 29.93 in 6.0 mi Calm Calm - 0.00 in   Overcast
7:52 AM 6.1 °F - 3.0 °F 87% 30.01 in 10.0 mi Calm Calm - 0.00 in   Overcast
8:52 AM 7.0 °F - 1.9 °F 80% 30.00 in 10.0 mi Calm Calm - N/A   Scattered Clouds
9:52 AM 12.0 °F - 7.0 °F 80% 29.99 in 10.0 mi Calm Calm - N/A   Clear
10:52 AM 16.0 °F - 9.0 °F 74% 29.96 in 10.0 mi Calm Calm - N/A   Partly Cloudy
11:52 AM 19.9 °F - 10.9 °F 68% 29.92 in 10.0 mi Calm Calm - N/A   Clear
12:52 PM 23.0 °F 18.4 °F 14.0 °F 68% 29.92 in 10.0 mi West 3.5 mph - N/A   Mostly Cloudy
1:52 PM 25.0 °F - 15.1 °F 66% 29.91 in 10.0 mi Calm Calm - N/A   Overcast
2:27 PM 25.0 °F 16.3 °F 15.1 °F 66% 29.85 in 10.0 mi WSW 8.1 mph - N/A   Overcast
2:52 PM 25.0 °F 18.1 °F 15.1 °F 66% 29.92 in 10.0 mi WSW 5.8 mph - N/A   Scattered Clouds
3:52 PM 24.1 °F 19.7 °F 15.1 °F 69% 29.94 in 10.0 mi West 3.5 mph - N/A   Overcast
4:52 PM 21.9 °F - 16.0 °F 78% 29.95 in 10.0 mi Calm Calm - N/A   Mostly Cloudy
5:52 PM 21.9 °F 15.7 °F 16.0 °F 78% 29.96 in 9.0 mi SW 4.6 mph - N/A   Overcast
6:52 PM 21.9 °F 17.2 °F 15.1 °F 75% 29.98 in 10.0 mi SSW 3.5 mph - 0.00 in   Overcast
7:52 PM 19.9 °F 14.9 °F 15.1 °F 81% 29.98 in 10.0 mi WSW 3.5 mph - N/A   Overcast
8:52 PM 19.0 °F 13.9 °F 14.0 °F 81% 29.98 in 10.0 mi NW 3.5 mph - N/A   Overcast
9:52 PM 18.0 °F 12.7 °F 15.1 °F 88% 29.99 in 6.0 mi Variable 3.5 mph - N/A   Overcast
10:23 PM 19.9 °F 13.4 °F 15.1 °F 81% 29.92 in 2.0 mi West 4.6 mph - 0.00 in Snow Light Snow
10:39 PM 19.9 °F 14.9 °F 16.0 °F 85% 29.93 in 3.0 mi West 3.5 mph - 0.00 in Snow Light Snow
10:52 PM 19.9 °F - 16.0 °F 85% 29.99 in 3.0 mi Calm Calm - 0.00 in Snow Light Snow
11:35 PM 21.0 °F 16.2 °F 17.1 °F 85% 29.93 in 6.0 mi WSW 3.5 mph - 0.00 in   Overcast
11:52 PM 23.0 °F 18.4 °F 17.1 °F 78% 29.99 in 10.0 mi SW 3.5 mph - 0.00 in   Overcast